TimeCDT,TemperatureF,Dew PointF,Humidity,Sea Level PressureIn,VisibilityMPH,Wind Direction,Wind SpeedMPH,Gust SpeedMPH,PrecipitationIn,Events,Conditions,WindDirDegrees,DateUTC
12:15 AM,55.4,44.6,67,29.30,10.0,SE,5.8,-,N/A,,Clear,140,2012-10-17 05:15:00
12:35 AM,53.6,42.8,67,29.29,10.0,Calm,Calm,-,N/A,,Clear,0,2012-10-17 05:35:00
12:55 AM,51.8,42.8,71,29.29,10.0,SE,4.6,-,N/A,,Clear,130,2012-10-17 05:55:00
1:15 AM,53.6,44.6,72,29.28,10.0,SE,3.5,-,N/A,,Clear,130,2012-10-17 06:15:00
1:35 AM,53.6,44.6,72,29.27,10.0,SE,4.6,-,N/A,,Clear,130,2012-10-17 06:35:00
1:55 AM,53.6,44.6,72,29.27,10.0,SE,5.8,-,N/A,,Clear,130,2012-10-17 06:55:00
2:15 AM,53.6,44.6,72,29.26,10.0,Calm,Calm,-,N/A,,Clear,0,2012-10-17 07:15:00
2:27 AM,53.6,44.6,72,29.26,10.0,SE,5.8,-,N/A,,Clear,130,2012-10-17 07:27:00
2:55 AM,53.6,44.6,72,29.25,10.0,SE,6.9,-,N/A,,Clear,130,2012-10-17 07:55:00
3:12 AM,51.8,42.8,71,29.24,10.0,SE,6.9,-,N/A,,Clear,130,2012-10-17 08:12:00
3:35 AM,51.8,42.8,71,29.23,10.0,SE,5.8,-,N/A,,Clear,140,2012-10-17 08:35:00
3:55 AM,51.8,44.6,76,29.22,10.0,SE,5.8,-,N/A,,Clear,140,2012-10-17 08:55:00
4:15 AM,53.6,44.6,72,29.21,10.0,SE,5.8,-,N/A,,Clear,130,2012-10-17 09:15:00
4:35 AM,53.6,46.4,77,29.21,10.0,SE,6.9,-,N/A,,Clear,140,2012-10-17 09:35:00
4:55 AM,53.6,44.6,72,29.21,10.0,SSW,8.1,21.9,N/A,,Scattered Clouds,200,2012-10-17 09:55:00
5:07 AM,53.6,44.6,72,29.21,10.0,Calm,Calm,-,N/A,,Mostly Cloudy,0,2012-10-17 10:07:00
5:42 AM,53.6,44.6,72,29.21,10.0,Calm,Calm,-,N/A,,Overcast,0,2012-10-17 10:42:00
5:55 AM,51.8,44.6,76,29.20,10.0,Calm,Calm,-,N/A,,Mostly Cloudy,0,2012-10-17 10:55:00
6:08 AM,51.8,44.6,76,29.19,10.0,Calm,Calm,-,N/A,,Unknown,0,2012-10-17 11:08:00
6:36 AM,51.8,44.6,76,29.19,10.0,SSE,3.5,-,N/A,Rain,Light Rain,150,2012-10-17 11:36:00
6:55 AM,51.8,44.6,76,29.19,10.0,Calm,Calm,-,N/A,Rain,Light Rain,0,2012-10-17 11:55:00
7:08 AM,51.8,44.6,76,29.19,10.0,Calm,Calm,-,N/A,,Drizzle,0,2012-10-17 12:08:00
7:35 AM,48.2,44.6,87,29.18,10.0,Calm,Calm,-,N/A,,Drizzle,0,2012-10-17 12:35:00
7:56 AM,48.2,44.6,87,29.17,7.0,Calm,Calm,-,N/A,Rain,Rain,0,2012-10-17 12:56:00
8:15 AM,48.2,46.4,93,29.18,10.0,SSE,6.9,-,N/A,Rain,Rain,160,2012-10-17 13:15:00
8:35 AM,48.2,46.4,93,29.18,10.0,SSE,3.5,-,0.02,Rain,Rain,160,2012-10-17 13:35:00
8:55 AM,48.2,46.4,93,29.17,7.0,Calm,Calm,-,0.03,Rain,Light Rain,0,2012-10-17 13:55:00
9:16 AM,48.2,46.4,93,29.16,7.0,Calm,Calm,-,0.01,Rain,Rain,0,2012-10-17 14:16:00
9:26 AM,48.2,46.4,93,29.16,7.0,Calm,Calm,-,0.01,Rain,Light Rain,0,2012-10-17 14:26:00
9:55 AM,48.2,46.4,93,29.15,5.0,Calm,Calm,-,0.04,Rain,Rain,0,2012-10-17 14:55:00
10:15 AM,48.2,46.4,93,29.14,3.0,Calm,Calm,-,0.04,Rain,Rain,0,2012-10-17 15:15:00
10:35 AM,48.2,46.4,93,29.13,3.0,Calm,Calm,-,0.07,Rain,Rain,0,2012-10-17 15:35:00
10:55 AM,48.2,46.4,93,29.13,3.0,Calm,Calm,-,0.10,Rain,Rain,0,2012-10-17 15:55:00
11:15 AM,48.2,46.4,93,29.11,5.0,Calm,Calm,-,0.03,Rain,Light Rain,0,2012-10-17 16:15:00
11:35 AM,48.2,46.4,93,29.11,4.0,Calm,Calm,-,0.05,Rain,Rain,0,2012-10-17 16:35:00
11:55 AM,48.2,46.4,93,29.10,2.5,Calm,Calm,-,0.09,Rain,Rain,0,2012-10-17 16:55:00
12:15 PM,48.2,48.2,100,29.10,4.0,Calm,Calm,-,0.04,Rain,Rain,0,2012-10-17 17:15:00
12:35 PM,48.2,48.2,100,29.09,4.0,Calm,Calm,-,0.07,Rain,Light Rain,0,2012-10-17 17:35:00
12:55 PM,48.2,48.2,100,29.09,2.5,Calm,Calm,-,0.11,Rain,Rain,0,2012-10-17 17:55:00
1:15 PM,48.2,48.2,100,29.07,5.0,West,6.9,-,0.07,Rain,Rain,280,2012-10-17 18:15:00
1:35 PM,48.2,48.2,100,29.07,4.0,WNW,9.2,-,0.11,Rain,Rain,290,2012-10-17 18:35:00
1:55 PM,48.2,46.4,93,29.06,7.0,WNW,10.4,-,0.14,Rain,Rain,290,2012-10-17 18:55:00
2:15 PM,46.4,46.4,100,29.07,10.0,West,9.2,-,0.01,,Drizzle,270,2012-10-17 19:15:00
2:35 PM,46.4,46.4,100,29.07,10.0,West,8.1,-,0.02,Rain,Light Rain,260,2012-10-17 19:35:00
2:55 PM,46.4,46.4,100,29.06,10.0,West,10.4,-,0.05,Rain,Rain,260,2012-10-17 19:55:00
3:15 PM,46.4,46.4,100,29.06,10.0,West,11.5,-,0.02,Rain,Light Rain,260,2012-10-17 20:15:00
3:35 PM,46.4,46.4,100,29.06,10.0,West,11.5,-,0.03,,Drizzle,260,2012-10-17 20:35:00
3:55 PM,48.2,46.4,93,29.07,10.0,West,9.2,-,0.03,,Drizzle,260,2012-10-17 20:55:00
4:15 PM,48.2,46.4,93,29.07,10.0,WSW,12.7,-,N/A,,Light Drizzle,250,2012-10-17 21:15:00
4:35 PM,46.4,46.4,100,29.07,2.5,WSW,12.7,16.1,N/A,,Drizzle,240,2012-10-17 21:35:00
4:55 PM,46.4,46.4,100,29.07,2.5,WSW,10.4,-,0.01,,Drizzle,240,2012-10-17 21:55:00
5:15 PM,46.4,46.4,100,29.08,2.5,WSW,11.5,-,0.01,,Drizzle,240,2012-10-17 22:15:00
5:35 PM,46.4,46.4,100,29.08,3.0,WSW,11.5,17.3,0.01,,Drizzle,240,2012-10-17 22:35:00
5:55 PM,46.4,44.6,93,29.09,7.0,WSW,15.0,-,0.01,,Light Drizzle,240,2012-10-17 22:55:00
6:15 PM,46.4,44.6,93,29.09,3.0,SW,11.5,-,N/A,,Overcast,230,2012-10-17 23:15:00
6:35 PM,46.4,44.6,93,29.10,3.0,WSW,10.4,-,N/A,,Overcast,240,2012-10-17 23:35:00
6:55 PM,46.4,44.6,93,29.10,4.0,SW,11.5,-,N/A,,Overcast,230,2012-10-17 23:55:00
7:00 PM,46.4,44.6,93,29.10,3.0,WSW,11.5,-,N/A,,Overcast,240,2012-10-18 00:00:00
7:35 PM,44.6,44.6,100,29.11,4.0,WSW,12.7,-,N/A,,Drizzle,240,2012-10-18 00:35:00
7:55 PM,44.6,42.8,93,29.11,10.0,West,15.0,21.9,0.01,,Overcast,260,2012-10-18 00:55:00
8:15 PM,44.6,42.8,93,29.12,7.0,WSW,13.8,-,N/A,,Drizzle,250,2012-10-18 01:15:00
8:35 PM,44.6,42.8,93,29.12,4.0,WSW,11.5,-,N/A,,Drizzle,240,2012-10-18 01:35:00
8:55 PM,44.6,42.8,93,29.13,5.0,SW,13.8,-,N/A,,Light Drizzle,230,2012-10-18 01:55:00
9:15 PM,42.8,42.8,100,29.13,4.0,SW,11.5,-,N/A,,Drizzle,220,2012-10-18 02:15:00
9:35 PM,42.8,42.8,100,29.14,4.0,SSW,11.5,-,0.01,,Drizzle,210,2012-10-18 02:35:00
9:55 PM,42.8,42.8,100,29.13,3.0,SSW,11.5,-,0.01,Rain,Rain,210,2012-10-18 02:55:00
10:15 PM,42.8,42.8,100,29.13,3.0,SSW,11.5,-,0.01,,Drizzle,200,2012-10-18 03:15:00
10:35 PM,42.8,42.8,100,29.13,4.0,SSW,13.8,-,0.01,,Light Drizzle,200,2012-10-18 03:35:00
10:55 PM,42.8,41.0,93,29.13,2.0,SSW,13.8,17.3,0.01,,Drizzle,200,2012-10-18 03:55:00
11:15 PM,42.8,41.0,93,29.13,3.0,SSW,12.7,-,N/A,,Overcast,200,2012-10-18 04:15:00
11:35 PM,42.8,41.0,93,29.12,2.5,South,10.4,-,N/A,,Overcast,190,2012-10-18 04:35:00
11:55 PM,42.8,41.0,93,29.12,2.5,South,10.4,-,N/A,,Overcast,180,2012-10-18 04:55:00